RH
59 60 63 67 65 78 68 69 77 82 84 84 83 76 76 67 68 61 60 62 61 65 70 73 73 76 77 81 81 85 83 80 89 92 76 85 77 82 83 82 84 77 78
59 60 68 83 79 84 79 64 58 60 62 66 70 74 77 71 63 63 61 60 64 61 56 70 72 75 79 79 81 86 91 92 94 96 96 93 77 86 64 71 71 93 87
63 63 66 77 76 71 66 60 58 59 63 63 64 67 70 70 67 67 67 68 66 64 65 68 74 80 85 90 94 94 93 96 95 93 91 96 98 78 72 58 82 89 88
60 60 64 67 65 65 62 59 56 58 59 64 64 66 72 68 72 71 72 72 67 66 67 73 84 90 92 93 91 86 93 85 87 91 75 88 90 95 78 79 67 82 75
63 64 64 62 63 59 63 62 58 59 61 64 67 73 70 72 69 71 74 70 68 69 75 84 87 90 92 94 94 94 93 94 94 95 96 93 94 94 97 90 83 81 90
63 63 63 62 68 71 68 66 58 57 61 68 71 71 71 71 71 75 77 75 74 86 87 84 90 93 94 95 96 94 93 95 95 96 96 85 84 84 90 84 78 80 86
58 63 65 68 70 70 65 58 54 57 67 68 68 70 72 73 75 80 78 74 77 92 91 89 91 94 93 92 93 94 95 97 98 97 95 94 92 93 93 96 96 90 83
49 56 59 64 60 57 59 60 58 61 64 59 58 59 64 70 71 75 78 82 87 91 91 89 88 88 86 87 91 95 96 96 96 95 97 97 91 96 93 95 99 97 89
49 49 57 57 57 58 62 60 58 52 51 51 55 57 58 63 76 78 79 82 81 77 88 88 90 90 91 89 92 95 95 95 95 95 96 97 96 98 98 98 96 99 97
46 53 52 56 59 60 62 59 50 46 45 46 52 54 60 72 76 78 78 80 82 81 84 86 89 88 82 84 90 92 90 93 93 94 97 96 95 95 96 94 90 94 96
49 54 56 58 57 58 52 46 44 43 45 43 53 58 62 71 76 80 84 86 86 87 87 87 86 82 84 82 83 82 82 82 77 73 73 71 68 74 76 79 81 85 90
54 56 58 56 56 56 45 45 45 41 44 47 54 55 60 75 80 84 84 84 80 84 87 87 85 80 80 81 77 74 72 72 73 72 70 67 51 70 74 81 81 76 72
65 64 59 56 55 56 54 47 47 46 45 48 51 54 60 76 79 84 84 82 83 85 87 86 82 72 71 68 70 72 73 72 73 74 73 70 70 72 74 77 80 79 66
66 64 63 61 60 59 61 60 56 51 48 50 52 57 62 76 77 82 84 84 86 86 84 73 67 67 67 64 65 67 75 76 73 77 77 77 77 77 79 78 87 79 83
66 64 64 64 62 62 63 61 57 54 54 53 54 58 64 75 73 80 78 81 74 68 68 61 67 69 64 59 77 74 76 78 79 78 75 74 71 61 63 70 85 93 91
66 67 64 62 60 59 63 64 63 61 60 59 57 59 63 70 76 78 82 73 69 75 59 64 70 69 55 76 72 76 84 77 77 80 76 79 68 66 69 72 73 78 82
73 71 68 67 65 67 64 57 53 53 54 58 62 64 64 72 75 75 83 89 96 68 59 70 74 77 78 75 71 78 85 85 86 86 82 76 61 73 76 80 77 78 78
74 73 72 69 64 62 46 46 42 43 48 62 67 73 74 74 78 88 89 88 85 72 63 79 77 77 68 76 78 82 92 94 92 91 89 87 82 82 76 77 88 92 90
77 76 73 65 50 40 40 41 43 44 57 67 75 76 82 84 91 91 96 94 91 67 81 80 83 85 87 81 78 88 96 93 92 83 84 76 80 75 74 94 93 88 89
72 62 48 34 37 37 39 43 44 49 66 68 72 76 83 90 93 96 95 89 68 82 83 83 88 81 89 71 71 75 99 99 89 87 78 74 71 76 82 93 96 96 87
34 35 37 38 38 40 42 46 46 57 63 67 72 85 90 93 84 87 71 76 87 90 94 96 90 88 83 84 68 67 91 90 88 85 81 81 80 90 87 82 96 96 91
36 38 42 43 42 44 50 49 52 53 66 76 85 87 89 86 79 67 70 77 90 90 98 97 96 96 93 70 71 65 66 70 93 92 88 93 90 77 81 92 93 93 93
42 42 46 49 52 52 54 57 55 61 74 88 91 92 87 87 82 72 75 82 85 95 97 98 97 97 93 94 73 73 70 76 91 90 87 86 76 80 88 89 90 95 95
48 48 52 57 63 61 59 66 65 75 82 90 89 87 87 92 78 75 74 91 97 97 97 98 97 98 94 97 94 89 95 86 89 95 93 91 85 87 91 91 92 96 96
54 55 61 68 67 66 63 67 84 84 98 99 88 82 92 99 93 83 87 93 89 92 96 97 97 99 99 95 80 80 86 84 87 94 96 90 89 89 88 88 91 93 93
61 64 68 71 72 64 70 73 90 90 94 99 97 92 95 97 94 95 94 82 83 82 81 84 93 96 85 77 69 71 67 61 72 94 99 97 96 95 92 93 92 90 92
Wind_Speed
9 12 12 11 13 11 12 11 9 5 3 2 2 4 3 3 5 6 9 8 8 8 7 4 5 5 5 4 3 3 4 4 4 3 6 3 6 5 5 5 5 9 9
13 11 11 9 9 7 7 7 8 7 5 3 2 3 3 4 4 4 6 7 7 6 7 6 6 6 4 6 5 4 3 2 5 2 3 5 6 4 9 7 6 6 6
13 10 9 7 7 7 5 6 6 7 4 5 3 3 3 2 2 3 3 4 6 6 6 6 5 4 3 4 4 4 5 2 2 4 1 4 3 7 1 10 2 5 5
10 8 8 7 7 4 7 7 5 6 7 8 6 5 3 3 2 2 1 3 5 5 5 5 5 5 3 4 3 3 2 1 2 2 3 1 1 4 9 3 8 6 9
10 9 8 7 5 6 7 7 8 8 7 7 6 5 3 1 0 2 3 3 3 5 5 5 5 5 3 3 3 3 2 1 1 0 2 2 2 0 1 9 4 6 4
7 7 6 6 4 3 5 6 8 5 6 7 7 7 5 3 2 1 1 2 2 3 4 5 5 4 4 3 3 3 3 3 1 0 1 2 3 3 2 6 10 10 5
7 7 7 5 4 5 5 6 6 6 6 7 6 6 4 3 2 0 1 3 2 2 3 3 2 1 1 1 3 3 3 2 2 3 2 3 3 2 3 5 6 5 4
5 6 7 7 7 7 5 4 6 7 7 7 6 5 5 3 2 2 2 3 2 1 2 2 1 1 2 2 3 2 3 3 4 4 3 2 3 4 4 3 3 7 4
6 8 7 5 3 3 3 6 8 8 6 5 3 3 3 4 4 5 3 2 1 2 3 2 3 4 5 5 4 4 5 4 5 5 5 3 4 3 4 4 5 5 7
1 2 4 6 5 6 6 8 7 7 4 3 3 1 2 5 4 3 3 2 1 2 3 4 4 5 5 5 3 4 5 5 5 4 4 4 3 4 3 4 4 4 7
8 8 8 7 6 6 6 5 4 4 4 2 0 1 0 4 5 5 5 3 1 1 3 4 4 4 5 5 4 5 5 4 4 5 5 5 3 3 4 4 4 4 3
11 7 5 6 6 3 3 2 1 2 1 3 3 4 3 5 5 5 5 3 3 2 4 4 5 5 5 5 4 5 5 5 5 5 5 5 7 6 6 4 6 6 7
6 5 5 5 5 6 4 4 3 4 4 3 4 6 5 6 7 6 6 6 5 5 5 4 4 4 4 4 5 5 4 4 3 4 5 7 8 8 6 7 6 6 7
5 4 4 4 5 5 5 5 5 5 6 6 7 7 7 7 5 6 7 5 6 5 4 3 2 2 5 4 4 3 2 3 3 4 5 6 7 8 8 8 6 5 5
6 5 6 6 6 6 6 6 6 6 6 6 6 7 7 5 6 5 6 5 6 4 4 3 3 5 4 3 3 1 2 4 4 5 5 5 9 17 14 7 6 5 4
5 5 5 6 6 7 6 6 7 7 6 7 7 8 7 6 5 5 6 4 5 5 4 4 5 4 2 4 3 3 4 4 5 5 6 5 10 9 16 17 17 12 8
5 5 6 6 7 6 5 6 6 6 6 6 5 5 5 4 3 5 4 7 8 9 0 4 4 2 2 5 6 8 4 4 5 6 6 7 7 12 9 13 17 14 15
4 6 5 6 7 7 6 6 6 6 6 4 4 3 4 5 5 3 4 4 2 7 2 4 3 3 3 7 8 9 4 4 5 6 6 7 9 8 12 11 9 7 7
5 5 5 5 4 5 6 5 6 5 3 5 4 5 4 6 5 4 5 8 5 2 3 4 3 3 4 9 10 7 4 5 6 7 7 10 9 14 20 10 10 11 9
3 4 5 3 4 7 6 6 5 3 3 4 5 6 5 5 5 6 7 4 2 5 4 3 2 2 3 9 11 9 1 3 6 7 9 15 15 20 21 13 10 9 9
3 4 5 5 6 7 7 7 6 3 3 4 5 5 5 5 4 6 3 4 5 4 3 1 1 1 4 5 10 14 3 4 6 7 8 8 19 20 15 16 7 9 10
6 5 5 6 6 7 6 7 7 5 3 3 3 3 3 3 2 1 1 4 4 3 1 1 3 2 3 8 9 15 13 14 4 7 8 8 16 18 15 12 16 16 9
4 4 5 6 6 6 6 7 9 6 3 2 3 5 5 5 4 3 4 3 2 1 2 2 1 2 2 2 8 12 12 13 7 6 11 14 15 15 10 16 16 10 6
4 4 6 6 6 6 7 6 9 5 2 3 4 3 3 5 4 3 1 2 2 0 2 2 2 2 2 2 3 4 4 9 8 6 5 6 8 7 7 7 8 6 6
4 4 5 5 6 6 9 8 6 7 6 5 5 4 2 1 2 2 1 2 2 3 2 3 3 2 3 3 7 10 4 5 6 4 3 4 6 6 6 6 7 7 7
5 5 6 6 5 9 8 7 5 7 8 5 3 2 2 1 2 1 2 4 3 5 5 6 6 3 5 7 12 10 11 13 12 3 2 3 5 5 6 6 7 6 8
Wind_Direction
73 61 63 59 75 62 71 83 77 44 61 36 16 17 20 17 30 48 44 40 40 45 46 41 34 26 41 7 5 353 342 317 343 334 322 302 280 332 6 357 344 358 1
77 68 60 46 57 71 78 78 84 75 72 83 95 87 88 84 69 59 44 51 58 51 60 48 34 31 20 6 3 12 331 323 13 343 286 325 315 19 340 347 351 11 18
113 100 85 77 84 82 92 92 105 115 106 90 85 63 72 56 58 48 54 30 58 57 58 51 46 30 37 29 34 32 42 354 331 33 75 332 309 324 338 326 0 9 359
107 112 105 87 91 93 80 71 77 59 45 38 53 64 81 35 353 32 96 65 64 68 68 73 73 68 56 40 3 35 41 342 345 309 17 266 312 308 315 11 329 350 340
132 128 128 139 142 119 102 89 73 68 71 76 83 85 76 123 62 48 55 32 44 46 63 75 73 60 45 25 11 356 30 55 116 101 317 321 295 98 306 309 325 322 315
131 129 154 146 121 70 76 99 109 104 85 88 90 98 90 78 53 5 13 327 40 49 51 68 71 66 48 21 351 346 338 340 344 70 174 310 309 318 289 301 313 316 313
132 158 163 158 157 156 143 130 113 98 111 97 77 69 76 69 45 312 275 337 6 35 27 32 57 80 77 354 331 323 318 318 336 265 240 227 225 223 230 259 272 285 308
165 184 182 170 175 170 158 105 98 92 68 68 69 66 64 62 17 15 69 53 78 163 230 235 42 346 302 316 315 300 290 273 257 266 251 230 256 256 269 262 263 289 265
171 175 169 158 132 89 87 94 81 77 78 81 79 56 38 43 90 96 106 108 137 221 226 261 260 273 284 277 273 264 270 262 270 269 268 265 263 251 249 234 237 262 289
68 145 75 73 63 64 71 78 106 129 140 104 64 50 39 123 133 144 126 101 344 329 316 294 241 249 256 280 304 296 280 268 269 267 275 277 292 281 271 278 287 261 252
54 58 48 41 42 75 107 133 142 125 95 90 141 324 63 175 164 156 163 175 199 336 327 288 287 310 307 293 287 290 304 340 22 20 14 336 327 320 296 308 286 273 251
84 82 72 58 43 67 128 124 137 118 201 223 220 250 234 198 201 192 190 205 221 231 261 283 291 314 310 327 353 41 46 31 17 352 346 332 331 309 293 269 274 273 272
74 56 45 37 16 3 344 322 301 242 266 253 258 269 267 220 224 218 216 221 237 249 259 254 278 301 1 74 75 72 51 26 7 333 323 315 310 301 292 286 280 268 276
81 69 35 7 344 326 323 324 306 259 271 250 258 272 276 235 237 234 233 242 251 256 272 254 237 57 122 108 83 73 30 347 323 308 296 291 288 288 287 286 291 305 301
34 20 6 335 305 317 313 308 296 284 284 276 287 288 295 237 232 250 263 278 282 258 221 210 87 130 137 124 116 160 290 300 294 286 281 290 303 310 306 317 308 301 296
4 345 314 303 315 307 316 315 315 314 325 317 299 295 307 260 216 246 256 265 296 300 214 120 140 164 133 153 212 235 267 287 278 286 283 276 301 305 311 302 303 294 286
288 300 298 300 306 317 331 353 338 322 324 317 348 356 336 318 321 309 356 347 311 271 195 122 130 115 206 216 312 311 257 270 278 282 284 298 305 311 296 292 291 286 280
307 315 310 327 342 354 346 322 309 301 327 3 3 354 336 304 289 330 55 61 290 273 244 129 91 41 321 331 326 330 332 309 294 291 291 291 298 290 303 297 292 276 275
293 296 323 320 333 295 281 293 312 333 13 347 341 319 301 285 253 233 231 233 220 256 110 96 77 12 328 348 11 38 12 343 315 307 306 305 309 304 312 313 308 292 272
310 305 305 317 314 322 323 329 334 8 6 322 315 315 315 291 277 252 267 297 97 105 113 89 49 11 17 10 19 18 322 314 315 313 309 309 316 318 314 299 282 275 276
10 25 30 351 315 315 340 335 328 281 294 316 334 320 316 311 311 326 312 98 101 121 97 104 334 80 48 13 18 1 341 315 327 319 316 313 317 317 342 341 314 297 280
29 17 359 338 321 335 345 330 312 269 280 336 356 9 354 315 302 255 93 110 138 138 190 359 306 313 20 26 11 359 350 339 321 311 308 300 339 348 349 339 349 353 352
0 351 355 328 327 331 329 321 313 290 308 354 348 334 333 331 331 86 101 120 156 145 247 230 267 294 338 345 353 339 338 337 320 304 324 353 353 350 342 345 356 349 342
359 333 334 330 314 321 339 334 329 321 300 331 303 301 328 344 38 38 85 125 138 168 257 276 296 289 310 309 305 303 302 323 328 319 324 340 340 330 335 346 344 342 341
333 329 325 305 307 338 333 334 349 344 317 298 296 313 357 340 335 10 136 155 231 194 212 238 215 196 304 273 322 339 342 342 4 346 338 352 349 347 351 352 347 348 346
328 326 310 297 309 328 318 323 313 329 316 293 309 353 15 50 86 51 342 331 263 276 303 278 205 248 228 303 326 354 11 358 10 4 338 339 341 345 351 352 347 351 354